User: anonymous   Login
Location: Cluny
(50.9333°N, 112.8167°W)
Time: 20:01:09
(UTC-06:00)
Language:

Hamsat - Orbit

View from above orbital plane
View from above orbital plane
View from above satellite
View from above satellite

Ground track
Ground track

The orbit data is extracted from the following two-line orbital elements,

1 28650U 05017B   15117.49417494  .00001924  00000-0  21842-3 0  9997
2 28650 097.5731 112.2659 0023766 195.5284 164.5206 14.87218632539912
Epoch (UTC): 27 April 2015 11:51:36
Eccentricity: 0.0023766
inclination: 97.5731°
perigee height: 590 km
apogee height: 623 km
right ascension of ascending node: 112.2659°
argument of perigee: 195.5284°
revolutions per day: 14.87218632
mean anomaly at epoch: 164.5206°
orbit number at epoch: 53991

The dashed part of the orbit path shows where the satellite is in the earth's shadow,  

DLR